Location: Gollag?dem
(16.8053°N, 80.8024°E)
Time: 16:55:24
(UTC+00:00)

Sich 1 - Pass Details

Date: 13 August 2020
Orbit: 593 x 626 km, 82.5° (Epoch: 17 September)

Event Time Altitude Azimuth Distance (km) Brightness Sun altitude
Rises 14:33:24 0° 194° (SSW) 2,884 6.4 -21.3°
Reaches altitude 10° 14:35:39 10° 199° (SSW) 1,983 5.6 -21.8°
Maximum altitude 14:39:56 52° 275° (W) 774 3.8 -22.7°
Drops below altitude 10° 14:44:16 10° 352° (N) 1,995 6.0 -23.6°
Sets 14:46:33 0° 357° (N) 2,903 6.9 -24.1°
